Regional Weather Roundup
Issued by NWS

Home | Current Version | Previous Version | Text Only | Print | Product List | Glossary On
Versions: 1 2 3 4 5 6 7 8 9 10 11 12 13 14 15 16 17 18 19 20 21 22 23 24 25 26 27 28 29 30 31 32 33 34 35 36 37 38 39 40 41 42 43 44 45 46 47 48 49 50
000
ASUS44 KBMX 302210
RWRAL

ALABAMA REGIONAL WEATHER ROUNDUP
NATIONAL WEATHER SERVICE BIRMINGHAM AL
500 PM CDT SAT APR 30 2016

NOTE: "FAIR" INDICATES FEW OR NO CLOUDS BELOW 12,000 FEET
WITH NO SIGNIFICANT WEATHER AND/OR OBSTRUCTIONS TO VISIBILITY.

THE REMARK "TC" DENOTES TEMPERATURE IN DEGREES CELSIUS.

ALZ001>011-014-016>018-020-302300-
NORTH ALABAMA

CITY           SKY/WX    TMP DP  RH WIND       PRES   REMARKS
MUSCLE SHOALS  NOT AVBL
HUNTSVILLE     CLOUDY    77  65  66 NW5       29.87S
DECATUR        CLOUDY    74  67  78 CALM      29.87F
HALEYVILLE     FAIR      73  68  84 S6        29.89F
GADSDEN        MOSUNNY   83  66  56 SW6       29.88F
$$

ALZ012-013-022-023-030>036-040>044-302300-
WEST CENTRAL ALABAMA

CITY           SKY/WX    TMP DP  RH WIND       PRES   REMARKS
TUSCALOOSA     PTSUNNY   79  68  69 S9        29.87F
$$

ALZ015-024>027-033>036-040>044-302300-
CENTRAL ALABAMA

CITY           SKY/WX    TMP DP  RH WIND       PRES   REMARKS
BIRMINGHAM     CLOUDY    81  66  60 S12       29.91S
MONTGOMERY     MOSUNNY   84  67  56 S7        29.89F
SHELBY CO ARPT CLOUDY    80  66  62 VRB6      29.89F
MAXWELL AFB    CLOUDY    84  68  59 S6        29.88F
GREENVILLE     FAIR      82  64  54 S8        29.90R
$$

ALZ019-021-028-029-037-038-045>048-302300-
EAST CENTRAL ALABAMA

CITY           SKY/WX    TMP DP  RH WIND       PRES   REMARKS
ANNISTON       PTSUNNY   84  64  50 S10       29.89S
ALEXANDER CITY SUNNY     83  69  63 S7        29.91S
AUBURN         CLOUDY    84  66  54 S12       29.92F
$$

ALZ051>064-302300-
SOUTHWEST ALABAMA

CITY           SKY/WX    TMP DP  RH WIND       PRES   REMARKS
MOBILE         PTSUNNY   77  73  87 SE7       29.92R
BROOKLEY FIELD CLOUDY    78  73  84 S7        29.92R
EVERGREEN      CLOUDY    79  67  66 SW5       29.91R
$$

ALZ049-050-065>069-302300-
SOUTHEAST ALABAMA

CITY           SKY/WX    TMP DP  RH WIND       PRES   REMARKS
DOTHAN         PTSUNNY   85  64  49 S7        29.93F
OZARK          CLOUDY    86  67  53 SW8       29.90S
TROY           CLOUDY    83  67  58 S8        29.90F
EUFAULA        FAIR      88  66  48 VRB3      29.89S HX  90
$$



USA.gov is the U.S. government's official web portal to all federal, state and local government web resources and services.